Regional Weather Roundup
Issued by NWS Green Bay, WI

Home | Current Version | Previous Version | Graphics & Text | Print | Product List | Glossary Off
Versions: 1 2 3 4 5 6 7 8 9 10 11 12 13 14 15 16 17 18 19 20 21 22 23 24 25 26 27 28 29 30 31 32 33 34 35 36 37 38 39 40 41 42 43 44 45 46 47 48 49 50

220
ASUS43 KGRB 280200
RWRGRB

NORTH-CENTRAL AND NORTHEAST WISCONSIN REGIONAL WEATHER ROUNDUP
NATIONAL WEATHER SERVICE GREEN BAY WI
900 PM CDT TUE JUN 27 2017

WIZ005-009-010>012-018-019-280300-
NORTH CENTRAL WISCONSIN

CITY           SKY/WX    TMP DP  RH WIND       PRES   REMARKS
IRONWOOD       CLEAR     66  47  50 S3        29.88F
MANITOWISH WTR NOT AVBL
ARBOR VITAE    NOT AVBL
EAGLE RIVER    NOT AVBL
LAND O LAKES   NOT AVBL
RHINELANDER    CLEAR     63  49  60 S5        29.93F
PHILLIPS       NOT AVBL
ANTIGO         NOT AVBL
TOMAHAWK       NOT AVBL
MERRILL        NOT AVBL
$$

WIZ013-073-280300-
NORTHEAST WISCONSIN

CITY           SKY/WX    TMP DP  RH WIND       PRES   REMARKS
IRON MOUNTAIN  CLEAR     67  45  45 SW8       29.90F
MARINETTE      PTCLDY    66  50  56 SW6       29.93S
$$

WIZ017-030-035>037-045-280300-
CENTRAL WISCONSIN

CITY           SKY/WX    TMP DP  RH WIND       PRES   REMARKS
MEDFORD        NOT AVBL
WAUSAU           N/A    N/A N/A N/A MISG      29.92S
MOSINEE        PTCLDY    63  50  63 S5        29.95F
MARSHFIELD     CLEAR     61  47  59 SW6       29.93S
WISC RAPIDS    CLEAR     64  51  62 S6        29.95S
STEVENS POINT  NOT AVBL
WAUPACA        NOT AVBL
SHAWANO        NOT AVBL
CLINTONVILLE   NOT AVBL
WAUTOMA        PTCLDY    63  52  67 S5        29.96S
$$

WIZ038-039-048-051-280300-
FOX VALLEY

CITY           SKY/WX    TMP DP  RH WIND       PRES   REMARKS
NWS GREEN BAY  CLEAR     66  53  63 S5        29.95S
APPLETON       PTCLDY    63  46  55 SW7       29.95S
OSHKOSH        CLOUDY    64  50  60 S3        29.96S
FOND DU LAC    CLOUDY    65  49  56 S5        29.97F
$$

WIZ022-050-052-280300-
EAST CENTRAL WISCONSIN

CITY           SKY/WX    TMP DP  RH WIND       PRES   REMARKS
EPHRAIM        NOT AVBL
WASHINGTON ISL NOT AVBL
STURGEON BAY     N/A     62  54  74 S7        29.95S
MANITOWOC      NOT AVBL
SHEBOYGAN      CLEAR     63  53  70 S6        29.98S
$$

LMZ563-521-522-541>543-280300-
LAKESHORE

STATION/POSITION TIME  TEMP    WIND        PRES    VSBY  WAVE
                       AIR SEA DIR/SP/G                  HT/PER
                 (UTC) (F)     (DEG/KT/KT) (MB)    (MI)  (FT/S)
SHEBOYGAN LKSHOR 0100   63     180/ 16/ 17 1015.0F
KEWAUNEE LKSHORE 0130   57     180/  9/ 10 1014.1S
ALGOMA MARINA    0102   63     210/  7/  9   N/A
NORTHPORT PIER   0140   62     150/  7/  9 1013.5F
N MID LAKE BUOY  0050   58 55  190/ 14/ 14 1014.9F         1/ 3
S GREEN BAY BUOY 0130   69     220/  8/ 10 1013.5F
SISTER BAY LKSHO 0108   64     150/ 10/ 12   N/A
CHAMBERS ISLAND  0140   65     160/  4/  7 1013.2S
MENOMINEE LKSHOR 0130          190/  5/  6 1012.5F
$$




USA.gov is the U.S. government's official web portal to all federal, state and local government web resources and services.